Regional Weather Roundup
Issued by NWS Kansas City/Pleasant Hill, MO

Home | Current Version | Previous Version | Text Only | Print | Product List | Glossary On
Versions: 1 2 3 4 5 6 7 8 9 10 11 12 13 14 15 16 17 18 19 20 21 22 23 24 25 26 27 28 29 30 31 32 33 34 35 36 37 38 39 40 41 42 43 44 45 46 47 48 49 50
000
ASUS43 KEAX 131704
RWREAX

WEATHER ROUNDUP FOR EASTERN KANSAS AND NORTHWEST MISSOURI
NATIONAL WEATHER SERVICE KANSAS CITY/PLEASANT HILL MO
1200 PM CDT SUN JUL 13 2014

KSZ040-057-103>105-MOZ028-029-037-043-131800-
...KANSAS CITY METROPOLITAN AREA...

CITY           SKY/WX    TMP DP  RH WIND       PRES   REMARKS
K.C. INTL      CLOUDY    79  73  82 NW8       30.04S
K.C. DOWNTOWN  CLOUDY    80  73  79 NW8       30.02F
LEES SUMMIT    PTSUNNY   81  72  74 NW7       30.03F
OLATHE - IXD   MOSUNNY   82  73  74 VRB5      30.04F
OLATHE - OJC   MOSUNNY   81  71  71 N8        30.03F
LAWRENCE       PTSUNNY   83  73  72 N6        30.03F

$$

MOZ001>008-011>017-020>025-030>033-038>040-044>046-053-054-131800-
...NORTHERN AND CENTRAL MISSOURI...

CITY           SKY/WX    TMP DP  RH WIND       PRES   REMARKS
ST. JOSEPH     MOSUNNY   79  71  76 VRB7      30.04S
MOSBY          CLOUDY    79  70  73 NW5       30.02S
WHITEMAN AFB   CLOUDY    76  67  71 NW3       30.03R
CLINTON        PTSUNNY   82  72  69 CALM      30.02S
SEDALIA        CLOUDY    80  73  79 VRB3      30.03R
WARSAW         NOT AVBL
MARSHALL         N/A     82  73  74 W6        30.03R HAZE
CHILLICOTHE      N/A     77  71  82 N5        30.02F
KIRKSVILLE     MOSUNNY   80  69  69 VRB6      30.02F

$$

MOZ041-047>049-056>058-063>065-088>090-097-131800-
...EASTERN AND SOUTHERN MISSOURI...

CITY           SKY/WX    TMP DP  RH WIND       PRES   REMARKS
ST. LOUIS INTL PTSUNNY   90  72  55 W8        29.99S HX  97
SPIRIT OF STL  PTSUNNY   87  70  56 W9        29.98S HX  92
COLUMBIA       CLOUDY    83  69  62 NW7       30.02F
JEFFERSON CITY PTSUNNY   85  70  60 CALM      30.00F
HANNIBAL       PTSUNNY   81  68  65 N5        30.00F
ROLLA          MOSUNNY   86  67  52 W8        30.01F
LEBANON        SUNNY     88  61  40 W12G20    30.05F
OSAGE BEACH    SUNNY     86  70  58 NW6       30.01R HX  90
SPRINGFIELD    SUNNY     87  68  52 W6        30.05F HX  90
BRANSON        MOSUNNY   91  70  49 W6        30.09F HX  97
NEVADA         MOSUNNY   84  70  61 S8        30.02F
JOPLIN         SUNNY     92  64  39 SW13      30.02F HX  93
WEST PLAINS    MOSUNNY   84  70  62 W6        30.09F
MALDEN         SUNNY     91  75  59 SW9       30.04F HX 102

$$

IAZ060-094-KSZ022-034>040-054-083-096-NEZ052-066-093-131800-
...KANSAS...SOUTHEAST NEBRASKA AND IOWA...

CITY           SKY/WX    TMP DP  RH WIND       PRES   REMARKS
TOPEKA         PTSUNNY   83  74  74 N9        30.04F
MANHATTAN      CLOUDY    82  70  66 NE12      30.05S
EMPORIA        PTSUNNY   81  67  62 NE8       30.03S
CHANUTE        SUNNY     86  64  47 W6        30.01S
WICHITA        PTSUNNY   82  70  66 N12       30.04S
OMAHA          MOSUNNY   84  63  49 W7        30.04F
LINCOLN        SUNNY     86  67  52 VRB6      30.07S
FALLS CITY     PTSUNNY   80  71  74 CALM      30.04S
LAMONI         MOSUNNY   79  68  69 NW8       30.03F
DES MOINES     MOSUNNY   84  65  52 NW10      30.01S

$$



USA.gov is the U.S. government's official web portal to all federal, state and local government web resources and services.